| time (UTC) | temp F | wind direction | speed MPH | gust MPH | rain 1hr in | rain 24hr in | rain mn in | humidity % | barometer mb |
| 20260508144520 | 53 | 199 | 2.0 | 7.0 | 0.00 | 0.00 | 0.00 | 62 | 1010.5 |
| 20260508144030 | 53 | 196 | 2.0 | 7.0 | 0.00 | 0.00 | 0.00 | 63 | 1010.4 |
| 20260508143556 | 53 | 184 | 3.0 | 7.0 | 0.00 | 0.00 | 0.00 | 63 | 1010.4 |
| 20260508143035 | 53 | 295 | 3.0 | 7.0 | 0.00 | 0.00 | 0.00 | 63 | 1010.4 |
| 20260508142539 | 53 | 214 | 3.0 | 7.0 | 0.00 | 0.00 | 0.00 | 63 | 1010.6 |
| 20260508142107 | 53 | 191 | 2.0 | 7.0 | 0.00 | 0.00 | 0.00 | 64 | 1010.6 |
| 20260508141026 | 52 | 205 | 1.0 | 5.0 | 0.00 | 0.00 | 0.00 | 64 | 1010.5 |
| 20260508140548 | 52 | 190 | 2.0 | 6.0 | 0.00 | 0.00 | 0.00 | 64 | 1010.5 |
| 20260508140051 | 52 | 197 | 2.0 | 6.0 | 0.00 | 0.00 | 0.00 | 64 | 1010.5 |
| 20260508135556 | 52 | 166 | 1.0 | 5.0 | 0.00 | 0.00 | 0.00 | 65 | 1010.6 |
| 20260508135046 | 52 | 222 | 2.0 | 5.0 | 0.00 | 0.00 | 0.00 | 65 | 1010.6 |
| 20260508134022 | 52 | 186 | 3.0 | 6.0 | 0.00 | 0.00 | 0.00 | 65 | 1010.5 |
| 20260508133535 | 52 | 195 | 2.0 | 7.0 | 0.00 | 0.00 | 0.00 | 65 | 1010.5 |
| 20260508133045 | 52 | 209 | 3.0 | 7.0 | 0.00 | 0.00 | 0.00 | 64 | 1010.5 |
| 20260508132045 | 51 | 240 | 3.0 | 7.0 | 0.00 | 0.00 | 0.00 | 65 | 1010.4 |
| 20260508131557 | 51 | 196 | 3.0 | 7.0 | 0.00 | 0.00 | 0.00 | 66 | 1010.4 |
| 20260508131114 | 51 | 184 | 3.0 | 7.0 | 0.00 | 0.00 | 0.00 | 66 | 1010.3 |
| 20260508130556 | 51 | 194 | 3.0 | 6.0 | 0.00 | 0.00 | 0.00 | 66 | 1010.3 |
| 20260508130109 | 51 | 188 | 2.0 | 6.0 | 0.00 | 0.00 | 0.00 | 67 | 1010.3 |
| 20260508125554 | 51 | 225 | 2.0 | 6.0 | 0.00 | 0.00 | 0.00 | 67 | 1010.3 |
| 20260508125039 | 51 | 223 | 1.0 | 6.0 | 0.00 | 0.00 | 0.00 | 67 | 1010.3 |
| 20260508124021 | 50 | 193 | 2.0 | 6.0 | 0.00 | 0.00 | 0.00 | 68 | 1010.2 |
| 20260508123527 | 50 | 215 | 3.0 | 6.0 | 0.00 | 0.00 | 0.00 | 69 | 1010.2 |
| 20260508123044 | 50 | 216 | 1.0 | 8.0 | 0.00 | 0.00 | 0.00 | 69 | 1010.2 |
| 20260508122609 | 49 | 170 | 3.0 | 8.0 | 0.00 | 0.00 | 0.00 | 70 | 1010.1 |
| 20260508122124 | 49 | 161 | 2.0 | 6.0 | 0.00 | 0.00 | 0.00 | 69 | 1010.1 |
| 20260508121025 | 49 | 223 | 2.0 | 5.0 | 0.00 | 0.00 | 0.00 | 70 | 1010.2 |
| 20260508120555 | 49 | 207 | 2.0 | 6.0 | 0.00 | 0.00 | 0.00 | 71 | 1010.2 |
| 20260508120059 | 49 | 187 | 3.0 | 7.0 | 0.00 | 0.00 | 0.00 | 71 | 1010.2 |
| 20260508115034 | 48 | 184 | 2.0 | 6.0 | 0.00 | 0.00 | 0.00 | 72 | 1010.1 |
| 20260508114017 | 47 | 201 | 2.0 | 6.0 | 0.00 | 0.00 | 0.00 | 73 | 1010.0 |
| 20260508113530 | 47 | 174 | 2.0 | 7.0 | 0.00 | 0.00 | 0.00 | 73 | 1010.0 |
| 20260508113102 | 46 | 173 | 3.0 | 7.0 | 0.00 | 0.00 | 0.00 | 74 | 1010.0 |
| 20260508112614 | 46 | 191 | 2.0 | 5.0 | 0.00 | 0.00 | 0.00 | 74 | 1010.0 |
| 20260508112024 | 46 | 192 | 1.0 | 4.0 | 0.00 | 0.00 | 0.00 | 74 | 1010.0 |
| 20260508111544 | 45 | 192 | 1.0 | 4.0 | 0.00 | 0.00 | 0.00 | 75 | 1010.0 |
| 20260508111041 | 45 | 192 | 1.0 | 4.0 | 0.00 | 0.00 | 0.00 | 75 | 1009.9 |
| 20260508110050 | 44 | 192 | 1.0 | 3.0 | 0.00 | 0.00 | 0.00 | 76 | 1009.9 |
| 20260508105553 | 44 | 191 | 1.0 | 4.0 | 0.00 | 0.00 | 0.00 | 76 | 1009.8 |
| 20260508105029 | 44 | 191 | 1.0 | 4.0 | 0.00 | 0.00 | 0.00 | 76 | 1009.8 |
| 20260508104545 | 43 | 191 | 0.0 | 0.0 | 0.00 | 0.00 | 0.00 | 77 | 1009.8 |
| 20260508104043 | 43 | 191 | 0.0 | 2.0 | 0.00 | 0.00 | 0.00 | 78 | 1009.6 |
| 20260508103543 | 42 | 191 | 0.0 | 3.0 | 0.00 | 0.00 | 0.00 | 80 | 1009.6 |
| 20260508103043 | 42 | 191 | 1.0 | 3.0 | 0.00 | 0.00 | 0.00 | 80 | 1009.6 |
| 20260508102031 | 41 | 207 | 1.0 | 4.0 | 0.00 | 0.00 | 0.00 | 82 | 1009.6 |
| 20260508101538 | 41 | 219 | 0.0 | 0.0 | 0.00 | 0.00 | 0.00 | 81 | 1009.6 |
| 20260508101041 | 41 | 219 | 0.0 | 0.0 | 0.00 | 0.00 | 0.00 | 81 | 1009.5 |
| 20260508100550 | 41 | 219 | 0.0 | 0.0 | 0.00 | 0.00 | 0.00 | 81 | 1009.5 |
| 20260508100050 | 41 | 219 | 0.0 | 0.0 | 0.00 | 0.00 | 0.00 | 81 | 1009.5 |
| 20260508095036 | 42 | 219 | 0.0 | 1.0 | 0.00 | 0.00 | 0.00 | 80 | 1009.6 |
| 20260508094548 | 42 | 219 | 0.0 | 1.0 | 0.00 | 0.00 | 0.00 | 80 | 1009.6 |
| 20260508094026 | 42 | 219 | 0.0 | 0.0 | 0.00 | 0.00 | 0.00 | 80 | 1009.6 |
| 20260508093545 | 42 | 219 | 0.0 | 0.0 | 0.00 | 0.00 | 0.00 | 80 | 1009.6 |
| 20260508092525 | 43 | 219 | 0.0 | 0.0 | 0.00 | 0.00 | 0.00 | 80 | 1009.7 |
| 20260508092042 | 43 | 219 | 0.0 | 0.0 | 0.00 | 0.00 | 0.00 | 79 | 1009.7 |
| 20260508091550 | 42 | 219 | 0.0 | 1.0 | 0.00 | 0.00 | 0.00 | 79 | 1009.7 |
| 20260508091039 | 42 | 219 | 0.0 | 1.0 | 0.00 | 0.00 | 0.00 | 78 | 1009.7 |
| 20260508090030 | 43 | 219 | 0.0 | 1.0 | 0.00 | 0.00 | 0.00 | 78 | 1009.7 |
| 20260508085550 | 43 | 219 | 0.0 | 0.0 | 0.00 | 0.00 | 0.00 | 78 | 1009.6 |
| 20260508085056 | 43 | 219 | 0.0 | 0.0 | 0.00 | 0.00 | 0.00 | 78 | 1009.6 |
| 20260508084038 | 43 | 219 | 0.0 | 0.0 | 0.00 | 0.00 | 0.00 | 79 | 1009.6 |
| 20260508083537 | 43 | 219 | 0.0 | 0.0 | 0.00 | 0.00 | 0.00 | 79 | 1009.6 |
| 20260508083051 | 43 | 219 | 0.0 | 0.0 | 0.00 | 0.00 | 0.00 | 78 | 1009.6 |
| 20260508082610 | 44 | 219 | 0.0 | 0.0 | 0.00 | 0.00 | 0.00 | 78 | 1009.6 |
| 20260508081536 | 44 | 219 | 0.0 | 0.0 | 0.00 | 0.00 | 0.00 | 78 | 1009.6 |
| 20260508080520 | 45 | 219 | 0.0 | 0.0 | 0.00 | 0.00 | 0.00 | 76 | 1009.6 |
| 20260508080044 | 45 | 219 | 0.0 | 0.0 | 0.00 | 0.00 | 0.00 | 76 | 1009.6 |
| 20260508075541 | 45 | 219 | 0.0 | 1.0 | 0.00 | 0.00 | 0.00 | 76 | 1009.7 |
| 20260508075046 | 46 | 219 | 0.0 | 0.0 | 0.00 | 0.00 | 0.00 | 75 | 1009.7 |
| 20260508074545 | 46 | 219 | 0.0 | 0.0 | 0.00 | 0.00 | 0.00 | 75 | 1009.7 |
| 20260508074106 | 46 | 219 | 0.0 | 0.0 | 0.00 | 0.00 | 0.00 | 74 | 1009.7 |
| 20260508073608 | 46 | 219 | 0.0 | 0.0 | 0.00 | 0.00 | 0.00 | 75 | 1009.7 |
| 20260508073116 | 47 | 219 | 0.0 | 0.0 | 0.00 | 0.00 | 0.00 | 74 | 1009.7 |
| 20260508072519 | 47 | 219 | 0.0 | 0.0 | 0.00 | 0.00 | 0.00 | 74 | 1009.9 |
| 20260508072041 | 47 | 219 | 0.0 | 0.0 | 0.00 | 0.00 | 0.00 | 74 | 1009.9 |
| 20260508071611 | 47 | 219 | 0.0 | 0.0 | 0.00 | 0.00 | 0.00 | 74 | 1009.9 |
| 20260508071115 | 48 | 219 | 0.0 | 0.0 | 0.00 | 0.00 | 0.00 | 73 | 1010.1 |
| 20260508070521 | 48 | 219 | 0.0 | 0.0 | 0.00 | 0.00 | 0.00 | 73 | 1010.1 |
| 20260508070020 | 48 | 219 | 0.0 | 0.0 | 0.00 | 0.00 | 0.00 | 73 | 1010.1 |
| 20260508065534 | 48 | 219 | 0.0 | 1.0 | 0.00 | 0.00 | 0.00 | 72 | 1010.1 |
| 20260508065108 | 48 | 219 | 0.0 | 1.0 | 0.00 | 0.00 | 0.00 | 72 | 1010.1 |
| 20260508064608 | 49 | 219 | 0.0 | 2.0 | 0.00 | 0.00 | 0.00 | 71 | 1010.1 |
| 20260508064130 | 49 | 219 | 1.0 | 2.0 | 0.00 | 0.00 | 0.00 | 70 | 1010.2 |
| 20260508063519 | 49 | 219 | 0.0 | 2.0 | 0.00 | 0.00 | 0.00 | 69 | 1010.2 |
| 20260508063039 | 49 | 219 | 0.0 | 3.0 | 0.00 | 0.00 | 0.00 | 68 | 1010.2 |
| 20260508062603 | 49 | 238 | 1.0 | 3.0 | 0.00 | 0.00 | 0.00 | 68 | 1010.6 |
| 20260508061525 | 49 | 238 | 1.0 | 3.0 | 0.00 | 0.00 | 0.00 | 66 | 1010.6 |
| 20260508061052 | 49 | 319 | 1.0 | 4.0 | 0.00 | 0.00 | 0.00 | 66 | 1011.0 |
| 20260508060604 | 49 | 313 | 1.0 | 5.0 | 0.00 | 0.00 | 0.00 | 65 | 1011.0 |
| 20260508060033 | 50 | 5 | 3.0 | 7.0 | 0.00 | 0.00 | 0.00 | 65 | 1011.0 |
| 20260508055523 | 50 | 340 | 4.0 | 7.0 | 0.00 | 0.00 | 0.00 | 64 | 1011.2 |
| 20260508055016 | 49 | 295 | 1.0 | 7.0 | 0.00 | 0.00 | 0.00 | 65 | 1011.2 |
| 20260508054540 | 49 | 344 | 2.0 | 6.0 | 0.00 | 0.00 | 0.00 | 67 | 1011.2 |
| 20260508054018 | 48 | 309 | 1.0 | 4.0 | 0.00 | 0.00 | 0.00 | 67 | 1010.4 |
| 20260508053543 | 48 | 306 | 0.0 | 0.0 | 0.00 | 0.00 | 0.00 | 68 | 1010.4 |
| 20260508053045 | 48 | 306 | 0.0 | 0.0 | 0.00 | 0.00 | 0.00 | 68 | 1010.4 |
| 20260508052535 | 48 | 306 | 0.0 | 0.0 | 0.00 | 0.00 | 0.00 | 68 | 1010.2 |
| 20260508052028 | 48 | 306 | 0.0 | 0.0 | 0.00 | 0.00 | 0.00 | 68 | 1010.2 |
| 20260508051602 | 48 | 306 | 0.0 | 0.0 | 0.00 | 0.00 | 0.00 | 68 | 1010.2 |
| 20260508051030 | 48 | 306 | 0.0 | 0.0 | 0.00 | 0.00 | 0.00 | 68 | 1010.2 |
| 20260508050525 | 48 | 306 | 0.0 | 0.0 | 0.00 | 0.00 | 0.00 | 68 | 1010.2 |
| 20260508050049 | 48 | 306 | 0.0 | 0.0 | 0.00 | 0.00 | 0.00 | 68 | 1010.2 |
| 20260508045523 | 48 | 306 | 0.0 | 0.0 | 0.00 | 0.00 | 0.00 | 68 | 1010.2 |
| 20260508045041 | 48 | 306 | 0.0 | 0.0 | 0.00 | 0.00 | 0.00 | 68 | 1010.2 |
| 20260508044604 | 48 | 306 | 0.0 | 0.0 | 0.00 | 0.00 | 0.00 | 68 | 1010.2 |
| 20260508044043 | 48 | 306 | 0.0 | 0.0 | 0.00 | 0.00 | 0.00 | 67 | 1010.4 |
| 20260508043532 | 48 | 306 | 0.0 | 0.0 | 0.00 | 0.00 | 0.00 | 68 | 1010.4 |
| 20260508043027 | 48 | 306 | 0.0 | 0.0 | 0.00 | 0.00 | 0.00 | 67 | 1010.4 |
| 20260508042540 | 49 | 306 | 0.0 | 0.0 | 0.00 | 0.00 | 0.00 | 68 | 1010.5 |
| 20260508042021 | 49 | 306 | 0.0 | 0.0 | 0.00 | 0.00 | 0.00 | 67 | 1010.5 |
| 20260508041550 | 48 | 306 | 0.0 | 0.0 | 0.00 | 0.00 | 0.00 | 66 | 1010.5 |
| 20260508041022 | 48 | 306 | 0.0 | 0.0 | 0.00 | 0.00 | 0.00 | 66 | 1010.5 |
| 20260508040544 | 48 | 306 | 0.0 | 0.0 | 0.00 | 0.00 | 0.00 | 64 | 1010.5 |
| 20260508040050 | 48 | 306 | 0.0 | 0.0 | 0.00 | 0.00 | 0.00 | 65 | 1010.5 |
| 20260508035537 | 49 | 306 | 0.0 | 0.0 | 0.00 | 0.00 | 0.00 | 64 | 1010.4 |
| 20260508035104 | 49 | 306 | 0.0 | 0.0 | 0.00 | 0.00 | 0.00 | 64 | 1010.4 |
| 20260508034615 | 49 | 306 | 0.0 | 0.0 | 0.00 | 0.00 | 0.00 | 65 | 1010.4 |
| 20260508034116 | 49 | 306 | 0.0 | 0.0 | 0.00 | 0.00 | 0.00 | 64 | 1010.4 |
| 20260508033532 | 49 | 306 | 0.0 | 0.0 | 0.00 | 0.00 | 0.00 | 64 | 1010.4 |
| 20260508033107 | 49 | 306 | 0.0 | 0.0 | 0.00 | 0.00 | 0.00 | 64 | 1010.4 |
| 20260508032554 | 48 | 306 | 0.0 | 0.0 | 0.00 | 0.00 | 0.00 | 63 | 1010.5 |
| 20260508031534 | 48 | 306 | 0.0 | 0.0 | 0.00 | 0.00 | 0.00 | 62 | 1010.5 |
| 20260508030529 | 48 | 306 | 0.0 | 0.0 | 0.00 | 0.00 | 0.00 | 61 | 1010.5 |
| 20260508030032 | 48 | 306 | 0.0 | 0.0 | 0.00 | 0.00 | 0.00 | 61 | 1010.5 |
| 20260508025529 | 48 | 306 | 0.0 | 0.0 | 0.00 | 0.00 | 0.00 | 60 | 1010.4 |
| 20260508025042 | 48 | 306 | 0.0 | 0.0 | 0.00 | 0.00 | 0.00 | 61 | 1010.4 |
| 20260508024556 | 48 | 306 | 0.0 | 0.0 | 0.00 | 0.00 | 0.00 | 61 | 1010.4 |
| 20260508023529 | 48 | 306 | 0.0 | 0.0 | 0.00 | 0.00 | 0.00 | 59 | 1010.4 |
| 20260508023039 | 48 | 306 | 0.0 | 0.0 | 0.00 | 0.00 | 0.00 | 60 | 1010.4 |
| 20260508022554 | 48 | 306 | 0.0 | 0.0 | 0.00 | 0.00 | 0.00 | 60 | 1010.2 |
| 20260508022056 | 48 | 306 | 0.0 | 0.0 | 0.00 | 0.00 | 0.00 | 59 | 1010.2 |
| 20260508021621 | 48 | 306 | 0.0 | 0.0 | 0.00 | 0.00 | 0.00 | 59 | 1010.2 |
| 20260508021018 | 48 | 306 | 0.0 | 0.0 | 0.00 | 0.00 | 0.00 | 58 | 1010.2 |
| 20260508020544 | 49 | 306 | 0.0 | 0.0 | 0.00 | 0.00 | 0.00 | 58 | 1010.2 |
| 20260508020026 | 49 | 306 | 0.0 | 0.0 | 0.00 | 0.00 | 0.00 | 58 | 1010.2 |
| 20260508015553 | 49 | 306 | 0.0 | 0.0 | 0.00 | 0.00 | 0.00 | 59 | 1010.2 |
| 20260508014546 | 49 | 306 | 0.0 | 0.0 | 0.00 | 0.00 | 0.00 | 57 | 1010.2 |
| 20260508013525 | 49 | 306 | 0.0 | 0.0 | 0.00 | 0.00 | 0.00 | 57 | 1010.2 |
| 20260508013024 | 50 | 306 | 0.0 | 0.0 | 0.00 | 0.00 | 0.00 | 55 | 1010.2 |
| 20260508012023 | 50 | 306 | 0.0 | 0.0 | 0.00 | 0.00 | 0.00 | 54 | 1010.1 |
| 20260508011542 | 50 | 306 | 0.0 | 0.0 | 0.00 | 0.00 | 0.00 | 54 | 1010.1 |
| 20260508010524 | 51 | 306 | 0.0 | 0.0 | 0.00 | 0.00 | 0.00 | 51 | 1010.1 |
| 20260508010058 | 51 | 306 | 0.0 | 0.0 | 0.00 | 0.00 | 0.00 | 51 | 1010.1 |
| 20260508005022 | 52 | 306 | 0.0 | 0.0 | 0.00 | 0.00 | 0.00 | 51 | 1010.0 |
| 20260508004533 | 52 | 306 | 0.0 | 0.0 | 0.00 | 0.00 | 0.00 | 51 | 1010.0 |
| 20260508004106 | 53 | 306 | 0.0 | 0.0 | 0.00 | 0.00 | 0.00 | 50 | 1009.9 |
| 20260508003056 | 53 | 306 | 0.0 | 0.0 | 0.00 | 0.00 | 0.00 | 46 | 1009.9 |
| 20260508002614 | 54 | 306 | 0.0 | 0.0 | 0.00 | 0.00 | 0.00 | 46 | 1009.6 |
| 20260508001524 | 55 | 306 | 0.0 | 0.0 | 0.00 | 0.00 | 0.00 | 44 | 1009.6 |
| 20260508001054 | 55 | 306 | 0.0 | 0.0 | 0.00 | 0.00 | 0.00 | 42 | 1009.6 |
| 20260508000029 | 55 | 306 | 0.0 | 2.0 | 0.00 | 0.00 | 0.00 | 40 | 1009.6 |
| 20260507235559 | 55 | 306 | 0.0 | 3.0 | 0.00 | 0.00 | 0.00 | 40 | 1009.6 |
| 20260507235058 | 56 | 306 | 1.0 | 3.0 | 0.00 | 0.00 | 0.00 | 39 | 1009.6 |
| 20260507234035 | 56 | 309 | 1.0 | 4.0 | 0.00 | 0.00 | 0.00 | 39 | 1009.6 |
| 20260507233601 | 56 | 300 | 2.0 | 4.0 | 0.00 | 0.00 | 0.00 | 38 | 1009.6 |
| 20260507233112 | 56 | 236 | 1.0 | 7.0 | 0.00 | 0.00 | 0.00 | 38 | 1009.6 |
| 20260507232519 | 56 | 315 | 2.0 | 7.0 | 0.00 | 0.00 | 0.00 | 39 | 1009.6 |
| 20260507232051 | 57 | 317 | 3.0 | 7.0 | 0.00 | 0.00 | 0.00 | 38 | 1009.6 |
| 20260507231526 | 57 | 245 | 3.0 | 8.0 | 0.00 | 0.00 | 0.00 | 38 | 1009.6 |
| 20260507231029 | 57 | 236 | 4.0 | 9.0 | 0.00 | 0.00 | 0.00 | 37 | 1009.6 |
| 20260507230029 | 57 | 275 | 3.0 | 10.0 | 0.00 | 0.00 | 0.00 | 38 | 1009.6 |
| 20260507225553 | 57 | 355 | 3.0 | 10.0 | 0.00 | 0.00 | 0.00 | 39 | 1009.7 |
| 20260507224528 | 57 | 230 | 5.0 | 11.0 | 0.00 | 0.00 | 0.00 | 39 | 1009.7 |
| 20260507224034 | 57 | 259 | 5.0 | 11.0 | 0.00 | 0.00 | 0.00 | 39 | 1009.9 |
| 20260507223547 | 57 | 313 | 3.0 | 8.0 | 0.00 | 0.00 | 0.00 | 39 | 1009.9 |
| 20260507223051 | 56 | 276 | 4.0 | 8.0 | 0.00 | 0.00 | 0.00 | 40 | 1009.9 |
| 20260507222559 | 56 | 229 | 3.0 | 8.0 | 0.00 | 0.00 | 0.00 | 39 | 1010.0 |
| 20260507221538 | 58 | 342 | 3.0 | 11.0 | 0.00 | 0.00 | 0.00 | 39 | 1010.0 |
| 20260507221047 | 58 | 232 | 5.0 | 11.0 | 0.00 | 0.00 | 0.00 | 38 | 1010.0 |
| 20260507220027 | 58 | 17 | 6.0 | 13.0 | 0.00 | 0.00 | 0.00 | 38 | 1010.0 |
| 20260507215531 | 58 | 300 | 5.0 | 13.0 | 0.00 | 0.00 | 0.00 | 39 | 1009.6 |
| 20260507215048 | 58 | 26 | 5.0 | 11.0 | 0.00 | 0.00 | 0.00 | 40 | 1009.6 |
| 20260507214547 | 58 | 18 | 4.0 | 9.0 | 0.00 | 0.00 | 0.00 | 39 | 1009.6 |
| 20260507213532 | 57 | 24 | 5.0 | 10.0 | 0.00 | 0.00 | 0.00 | 40 | 1009.6 |
| 20260507213054 | 57 | 330 | 2.0 | 8.0 | 0.00 | 0.00 | 0.00 | 41 | 1009.6 |
| 20260507212036 | 57 | 14 | 6.0 | 11.0 | 0.00 | 0.00 | 0.00 | 40 | 1009.6 |
| 20260507211558 | 57 | 304 | 5.0 | 11.0 | 0.00 | 0.00 | 0.00 | 40 | 1009.6 |
| 20260507210531 | 57 | 13 | 3.0 | 10.0 | 0.00 | 0.00 | 0.00 | 42 | 1009.6 |
| 20260507205521 | 57 | 339 | 3.0 | 11.0 | 0.00 | 0.00 | 0.00 | 41 | 1009.6 |
| 20260507205040 | 57 | 350 | 5.0 | 11.0 | 0.00 | 0.00 | 0.00 | 40 | 1009.6 |
| 20260507204600 | 57 | 346 | 5.0 | 16.0 | 0.00 | 0.00 | 0.00 | 40 | 1009.6 |
| 20260507203536 | 58 | 301 | 3.0 | 11.0 | 0.00 | 0.00 | 0.00 | 42 | 1009.6 |
| 20260507202527 | 57 | 335 | 4.0 | 14.0 | 0.00 | 0.00 | 0.00 | 43 | 1009.6 |
| 20260507202042 | 57 | 315 | 3.0 | 14.0 | 0.00 | 0.00 | 0.00 | 43 | 1009.6 |
| 20260507201039 | 56 | 325 | 5.0 | 15.0 | 0.00 | 0.00 | 0.00 | 43 | 1009.6 |
| 20260507200034 | 57 | 334 | 6.0 | 12.0 | 0.00 | 0.00 | 0.00 | 43 | 1009.6 |
| 20260507195548 | 56 | 11 | 5.0 | 11.0 | 0.00 | 0.00 | 0.00 | 44 | 1009.7 |
| 20260507195101 | 57 | 236 | 6.0 | 13.0 | 0.00 | 0.00 | 0.00 | 43 | 1009.7 |
| 20260507194611 | 57 | 308 | 7.0 | 13.0 | 0.00 | 0.00 | 0.00 | 43 | 1009.7 |
| 20260507193528 | 57 | 264 | 5.0 | 15.0 | 0.00 | 0.00 | 0.00 | 44 | 1009.9 |
| 20260507192542 | 56 | 211 | 6.0 | 12.0 | 0.00 | 0.00 | 0.00 | 44 | 1009.9 |
| 20260507191523 | 56 | 276 | 5.0 | 13.0 | 0.00 | 0.00 | 0.00 | 44 | 1009.9 |
| 20260507191023 | 57 | 24 | 6.0 | 13.0 | 0.00 | 0.00 | 0.00 | 44 | 1010.1 |
| 20260507190554 | 57 | 303 | 6.0 | 12.0 | 0.00 | 0.00 | 0.00 | 45 | 1010.1 |
| 20260507190111 | 56 | 232 | 4.0 | 11.0 | 0.00 | 0.00 | 0.00 | 46 | 1010.1 |
| 20260507185515 | 56 | 319 | 8.0 | 13.0 | 0.00 | 0.00 | 0.00 | 43 | 1010.1 |
| 20260507185053 | 56 | 5 | 7.0 | 14.0 | 0.00 | 0.00 | 0.00 | 44 | 1010.1 |
| 20260507184028 | 56 | 241 | 4.0 | 12.0 | 0.00 | 0.00 | 0.00 | 47 | 1010.1 |
| 20260507183520 | 56 | 302 | 7.0 | 13.0 | 0.00 | 0.00 | 0.00 | 47 | 1010.1 |
| 20260507182523 | 56 | 301 | 5.0 | 14.0 | 0.00 | 0.00 | 0.00 | 48 | 1010.1 |
| 20260507182058 | 56 | 330 | 6.0 | 14.0 | 0.00 | 0.00 | 0.00 | 48 | 1010.1 |
| 20260507181050 | 56 | 187 | 5.0 | 13.0 | 0.00 | 0.00 | 0.00 | 47 | 1010.1 |
| 20260507180019 | 56 | 303 | 4.0 | 8.0 | 0.00 | 0.00 | 0.00 | 50 | 1010.1 |
| 20260507175542 | 56 | 229 | 4.0 | 12.0 | 0.00 | 0.00 | 0.00 | 50 | 1010.1 |
| 20260507175029 | 56 | 260 | 6.0 | 13.0 | 0.00 | 0.00 | 0.00 | 50 | 1010.1 |
| 20260507174546 | 55 | 350 | 5.0 | 13.0 | 0.00 | 0.00 | 0.00 | 50 | 1010.1 |
| 20260507173025 | 55 | 309 | 4.0 | 12.0 | 0.00 | 0.00 | 0.00 | 51 | 1010.2 |
| 20260507172548 | 55 | 316 | 5.0 | 10.0 | 0.00 | 0.00 | 0.00 | 51 | 1010.6 |
| 20260507171518 | 55 | 254 | 6.0 | 14.0 | 0.00 | 0.00 | 0.00 | 50 | 1010.6 |
| 20260507171021 | 55 | 284 | 6.0 | 12.0 | 0.00 | 0.00 | 0.00 | 51 | 1010.7 |
| 20260507170529 | 54 | 222 | 4.0 | 10.0 | 0.00 | 0.00 | 0.00 | 51 | 1010.7 |
| 20260507165548 | 54 | 321 | 6.0 | 11.0 | 0.00 | 0.00 | 0.00 | 49 | 1010.8 |
| 20260507164534 | 54 | 207 | 3.0 | 12.0 | 0.00 | 0.00 | 0.00 | 50 | 1010.8 |
| 20260507164050 | 54 | 211 | 5.0 | 13.0 | 0.00 | 0.00 | 0.00 | 50 | 1010.9 |
| 20260507163545 | 54 | 209 | 5.0 | 10.0 | 0.00 | 0.00 | 0.00 | 49 | 1010.9 |
| 20260507162533 | 53 | 109 | 4.0 | 11.0 | 0.00 | 0.00 | 0.00 | 49 | 1010.7 |
| 20260507162046 | 53 | 205 | 4.0 | 11.0 | 0.00 | 0.00 | 0.00 | 49 | 1010.7 |
| 20260507161029 | 53 | 268 | 4.0 | 10.0 | 0.00 | 0.00 | 0.00 | 50 | 1010.6 |
| 20260507160536 | 53 | 269 | 4.0 | 11.0 | 0.00 | 0.00 | 0.00 | 51 | 1010.6 |
| 20260507155525 | 53 | 236 | 6.0 | 12.0 | 0.00 | 0.00 | 0.00 | 50 | 1010.6 |
| 20260507155053 | 53 | 258 | 4.0 | 10.0 | 0.00 | 0.00 | 0.00 | 51 | 1010.6 |
| 20260507154547 | 53 | 319 | 6.0 | 10.0 | 0.00 | 0.00 | 0.00 | 51 | 1010.6 |
| 20260507154056 | 53 | 129 | 3.0 | 10.0 | 0.00 | 0.00 | 0.00 | 52 | 1010.6 |
| 20260507153107 | 53 | 268 | 3.0 | 8.0 | 0.00 | 0.00 | 0.00 | 53 | 1010.6 |
| 20260507152101 | 52 | 190 | 4.0 | 9.0 | 0.00 | 0.00 | 0.00 | 52 | 1010.5 |
| 20260507151613 | 52 | 202 | 4.0 | 9.0 | 0.00 | 0.00 | 0.00 | 54 | 1010.5 |
| 20260507150536 | 52 | 312 | 5.0 | 8.0 | 0.00 | 0.00 | 0.00 | 54 | 1010.6 |
| 20260507150044 | 52 | 245 | 2.0 | 10.0 | 0.00 | 0.00 | 0.00 | 54 | 1010.6 |
| 20260507145539 | 51 | 251 | 3.0 | 10.0 | 0.00 | 0.00 | 0.00 | 56 | 1010.6 |